Back to catalog

LANDSAT 1

ERTS 1

AliveScienceSSO
NORAD 6126·PAYLOAD·🇺🇸 United States

Launched Jul 23, 1972 from Vandenberg Space Force Base

Loading…

Next Passes (next 24 hours)

TLE

FreshSource: Space-Track

Epoch: Sep 14, 2026, 08:40 UTC

1 06126U 72058A   26257.36143609  .00000047  00000-0  65861-4 0  9992
2 06126  99.3311 288.5777 0008132  19.8949 340.2529 13.97839911760415

Track LANDSAT 1 in real time with AllMySat

Download on the App Store